Regional Weather Roundup
Issued by NWS

Home | Current Version | Previous Version | Text Only | Print | Product List | Glossary Off
Versions: 1 2 3 4 5 6 7 8 9 10 11 12 13 14 15 16 17 18 19 20 21 22 23 24 25 26 27 28 29 30 31 32 33 34 35 36 37 38 39 40 41 42 43 44 45 46 47 48 49 50

609
ASUS43 KLOT 281208
RWRIL

ILLINOIS REGIONAL WEATHER ROUNDUP
NATIONAL WEATHER SERVICE CHICAGO/ROMEOVILLE IL
600 AM CST TUE FEB 28 2017

NOTE: "FAIR" INDICATES FEW OR NO CLOUDS BELOW 12,000 FEET WITH NO
SIGNIFICANT WEATHER AND/OR OBSTRUCTIONS TO VISIBILITY.

* THESE STATIONS ARE NOT UNDER NWS QUALITY CONTROL. THEY ALSO MAY NOT
  REPORT WEATHER SUCH AS PRECIPITATION OR FOG.

ILZ001-002-007-009-015-016-024-281300-
NORTHWEST ILLINOIS

CITY           SKY/WX    TMP DP  RH WIND       PRES   REMARKS
MOLINE         CLOUDY    50  47  89 SE9       29.74F
6HR MIN TEMP:  50; 6HR MAX TEMP:  52; 6HR PCP:  0.06;

STERLING*      PTCLDY    49  47  93 S8        29.77F
$$

ILZ003-004-008-010-011-017-018-281300-
NORTH CENTRAL ILLINOIS

CITY           SKY/WX    TMP DP  RH WIND       PRES   REMARKS
ROCKFORD       CLOUDY    49  45  86 S13       29.80S
6HR MIN TEMP:  45; 6HR MAX TEMP:  49; 6HR PCP:  0.24;

FREEPORT*      PTCLDY    44  43  97 SE6       29.78F
ROCHELLE*      PTCLDY    46  45  96 S13       29.78S
DE KALB*       CLOUDY    46  45  96 S17       29.80F
PERU*          MOCLDY    48  45  91 S16       29.81F
$$

ILZ005-006-012>014-019>023-281300-
NORTHEAST ILLINOIS

CITY           SKY/WX    TMP DP  RH WIND       PRES   REMARKS
CHICAGO-OHARE  CLOUDY    50  45  83 S16       29.85S
6HR MIN TEMP:  47; 6HR MAX TEMP:  50; 6HR PCP:  0.01;

CHICAGO-MIDWAY CLOUDY    50  44  80 S12       29.87S
6HR MIN TEMP:  47; 6HR MAX TEMP:  50; 6HR PCP:  0.01;

AURORA         MOCLDY    48  45  89 S18       29.82F
6HR MIN TEMP:  46; 6HR MAX TEMP:  49; 6HR PCP:  0.01;

LANSING*       CLOUDY    47  46  95 S12       29.90R
JOLIET*        CLOUDY    51  48  89 S9        29.87F
WAUKEGAN       CLOUDY    40  39  97 SE5       29.83F FOG
6HR MIN TEMP:  40; 6HR MAX TEMP:  41; 6HR PCP:  0.10;

DUPAGE AIRPORT CLOUDY    49  44  83 S16       29.80F
6HR MIN TEMP:  46; 6HR MAX TEMP:  49; 6HR PCP:  0.01;

KANKAKEE*      CLOUDY    48  46  91 S12G17    29.90S
WHEELING       CLOUDY    49  45  86 S16       29.85F
6HR MIN TEMP:  44; 6HR MAX TEMP:  49; 6HR PCP: TRACE;

MORRIS*        CLOUDY    48  46  90 S8        29.86S
ROMEOVILLE*    CLOUDY    48  47  97 S15       29.86F
NORTHERLY ISL    N/A     49  43  80 S12         N/A
$$

LMZ740>746-281300-
SOUTHERN LAKE MICHIGAN

STATION/POSITION SKY/WX   TEMP    WIND        PRES    VSBY  WAVE
                          AIR SEA DIR/SP/G                  HT/PER
                          (F)     (DEG/KT/KT) (MB)    (MI)  (FT/S)
HARRISON CRIB              49     190/ 23/ 24   N/A
BURNHAM HARBOR             49     200/ 11/ 15   N/A
CALUMET HARBOR             48     170/ 11/ 15 1011.4R
BURNS HARBOR               49     170/ 13/ 24 1013.2R
MICHIGAN CITY              48     140/ 16/ 21   N/A
$$

ILZ025>027-034>036-040-047-049-050-058-095>099-281300-
WEST-CENTRAL ILLINOIS

CITY           SKY/WX    TMP DP  RH WIND       PRES   REMARKS
QUINCY         CLOUDY    56  52  86 S15       29.76S
GALESBURG*     MOCLDY    50  48  93 SE5       29.77S
MACOMB*        MOCLDY    50  48  95 S8        29.80R
JACKSONVILLE*  CLOUDY    55  51  88 S12G18    29.82R
PITTSFIELD*    CLOUDY    56  53  87 S10       29.81S
$$

ILZ028>032-037-038-041>044-048-051>054-059>061-281300-
CENTRAL ILLINOIS

CITY           SKY/WX    TMP DP  RH WIND       PRES   REMARKS
PONTIAC        MOCLDY    50  49  97 S13       29.86F
BLOOMINGTON    CLOUDY    48  48 100 S16       29.86F
DECATUR        CLOUDY    50  47  89 S15       29.88F
PEORIA         CLOUDY    53  50  89 S10       29.81F
6HR MIN TEMP:  50; 6HR MAX TEMP:  53; 6HR PCP: TRACE;

LACON*         CLOUDY    51  49  93 S9        29.80F
LINCOLN*       CLOUDY    53  51  94 S13G18    29.84F
SPRINGFIELD    PTCLDY    53  49  86 S13       29.84F
6HR MIN TEMP:  53; 6HR MAX TEMP:  55;

TAYLORVILLE    CLOUDY    51  49  95 S15       29.87F
6HR MIN TEMP:  50; 6HR MAX TEMP:  53; 6HR PCP:  0.01;

$$

ILZ033-039-045-046-055>057-062-063-281300-
EAST-CENTRAL ILLINOIS

CITY           SKY/WX    TMP DP  RH WIND       PRES   REMARKS
CHAMPAIGN      CLOUDY    50  47  89 S16       29.91S
RANTOUL*       CLOUDY    51  49  93 S13       29.91S
MATTOON        CLOUDY    50  49  96 S10G20    29.92R
PARIS*         CLOUDY    49  49  97 S14       29.95F
$$

ILZ079-100>102-281300-
SOUTHWEST ILLINOIS

CITY           SKY/WX    TMP DP  RH WIND       PRES   REMARKS
ALTON          CLOUDY    54  51  91 S10G16    29.86F
BELLEVILLE     CLOUDY    55  55 100 VRB5      29.87F
CAHOKIA*       CLOUDY    56  52  86 S9        29.87S
SPARTA*        CLOUDY    54  52  94 S15       29.91F
$$

ILZ064>066-069>071-074>076-080>082-084>086-088>090-092>094-281300-
SOUTH-CENTRAL ILLINOIS

CITY           SKY/WX    TMP DP  RH WIND       PRES   REMARKS
CARBONDALE     CLOUDY    55  54  96 S12       29.94F
6HR MIN TEMP:  54; 6HR MAX TEMP:  55; 6HR PCP:  0.08;

CAIRO*         CLOUDY    55  55  99 S8        29.96F FOG
EFFINGHAM*     CLOUDY    51  51 100 SE9       29.94F
MARION         CLOUDY    55  55 100 S9        29.96S THUNDER
MT. VERNON     LGT RAIN  54  51  90 S14       29.94S
CENTRALIA*     CLOUDY    54  53  95 S8        29.91F
SALEM*         CLOUDY    55  51  88 S10       29.92S
METROPOLIS*    CLOUDY    56  55  97 CALM      29.98F THUNDER
$$

ILZ067-068-072-073-078-083-087-091-281300-
SOUTHEAST ILLINOIS

CITY           SKY/WX    TMP DP  RH WIND       PRES   REMARKS
LAWRENCEVILLE  LGT RAIN  50  50 100 SE8       29.99F
FLORA*         CLOUDY    53  51  94 SE8       29.95S
FAIRFIELD*     CLOUDY    52  51  96 SE5       29.94F
HARRISBURG*    CLOUDY    56  53  91 S8        29.96F
ROBINSON*      CLOUDY    50  49  97 S9        29.98R
CARMI*         CLOUDY    52  50  94 S8        29.97S
$$

ABBREVIATIONS USED IN REMARKS
   TC - TEMPERATURE IN CELSIUS
  WCI - WIND CHILL INDEX
   HX - HEAT INDEX
  VSB - VISIBILITY
$$





USA.gov is the U.S. government's official web portal to all federal, state and local government web resources and services.